User: anonymous   Login
Location: Campestrin
(46.4667°N, 11.7167°E)
Time: 05:26:02
(UTC+00:00)
Language:

FALCON 9 DEB - Orbit

View from above orbital plane
View from above orbital plane
View from above satellite
View from above satellite

Ground track
Ground track

The orbit data is extracted from the following two-line orbital elements,

1 44295U 19029BN  21171.30474696  .00002497  00000-0  58803-4 0  9996
2 44295  52.9993 166.7297 0008829 157.6378 202.5014 15.46154701118351
Epoch (UTC): 20 June 2021 07:18:50
Eccentricity: 0.0008829
inclination: 52.9993°
perigee height: 422 km
apogee height: 434 km
right ascension of ascending node: 166.7297°
argument of perigee: 157.6378°
revolutions per day: 15.46154701
mean anomaly at epoch: 202.5014°
orbit number at epoch: 11835

The dashed part of the orbit path shows where the satellite is in the earth's shadow,  

DLR